Back to catalog

COSMOS 1823 DEB

AliveLEO
NORAD 18756·DEBRIS·🇷🇺 Russia

Launched Feb 20, 1987 from Plesetsk Cosmodrome

Loading…

Next Passes (next 24 hours)

TLE

FreshSource: Space-Track

Epoch: Sep 14, 2026, 00:48 UTC

1 18756U 87020AH  26257.03371251  .00000055  00000-0  51521-3 0  9995
2 18756  73.6283 265.2559 0030695   5.6469  22.4743 12.44201517757418

Track COSMOS 1823 DEB in real time with AllMySat

Download on the App Store